DAL305 KFLL-KJFK

Flight info

Callsign DAL305
Flight time 2h 16m
Altitude 39000
Route AGERS1 DUCEN Q87 JROSS JOHAR Q109 DFENC SAWED Q108 SIE CAMRN4
Aircraft A20N/M-SDE2E3FGHIRWXY/LB1

Departure

Time 2026-05-03 22:34
Airport Fort Lauderdale Hollywood International Airport (KFLL)

Arrival

Time 2026-05-04 00:50
Airport John F. Kennedy International Airport (KJFK)
Time Latitude Longitude Altitude Speed Heading
2026-05-03 20:57 26.07378 -80.14422 16 ft 0 kts 139°
2026-05-03 21:22 26.07384 -80.14428 15 ft 2 kts 139°
2026-05-03 21:23 26.07395 -80.14440 15 ft 3 kts 116°
2026-05-03 21:23 26.07400 -80.14461 15 ft 3 kts 99°
2026-05-03 21:23 26.07402 -80.14483 15 ft 3 kts 76°
2026-05-03 21:23 26.07395 -80.14494 15 ft 0 kts
2026-05-03 21:41 26.07402 -80.14493 17 ft 3 kts
2026-05-03 21:41 26.07430 -80.14490 16 ft 6 kts
2026-05-03 21:41 26.07474 -80.14500 16 ft 7 kts 325°
2026-05-03 21:41 26.07488 -80.14558 16 ft 9 kts 275°
2026-05-03 21:42 26.07489 -80.14641 16 ft 12 kts 270°
2026-05-03 21:42 26.07489 -80.14696 16 ft 4 kts 270°
2026-05-03 21:42 26.07489 -80.14743 16 ft 8 kts 269°
2026-05-03 21:42 26.07487 -80.14816 16 ft 11 kts 269°
2026-05-03 21:43 26.07488 -80.14915 15 ft 14 kts 270°
2026-05-03 21:43 26.07489 -80.14991 15 ft 0 kts 270°
2026-05-03 21:45 26.07489 -80.15002 15 ft 3 kts 270°
2026-05-03 21:45 26.07489 -80.15043 15 ft 7 kts 270°
2026-05-03 21:45 26.07489 -80.15051 15 ft 0 kts 270°
2026-05-03 21:47 26.07489 -80.15062 15 ft 5 kts 270°
2026-05-03 21:48 26.07489 -80.15125 15 ft 11 kts 270°
2026-05-03 21:48 26.07490 -80.15223 15 ft 14 kts 270°
2026-05-03 21:48 26.07490 -80.15343 15 ft 17 kts 270°
2026-05-03 21:48 26.07490 -80.15485 15 ft 19 kts 270°
2026-05-03 21:49 26.07492 -80.15637 15 ft 18 kts 271°
2026-05-03 21:49 26.07493 -80.15754 15 ft 16 kts 270°
2026-05-03 21:49 26.07494 -80.15877 15 ft 16 kts 270°
2026-05-03 21:49 26.07494 -80.15999 16 ft 14 kts 271°
2026-05-03 21:50 26.07495 -80.16108 16 ft 12 kts 270°
2026-05-03 21:50 26.07495 -80.16195 16 ft 9 kts 270°
2026-05-03 21:50 26.07496 -80.16205 16 ft 0 kts 270°
2026-05-03 21:51 26.07496 -80.16206 16 ft 1 kts 270°
2026-05-03 21:51 26.07496 -80.16229 16 ft 5 kts 270°
2026-05-03 21:51 26.07496 -80.16243 16 ft 0 kts 270°
2026-05-03 21:55 26.07496 -80.16252 16 ft 3 kts 270°
2026-05-03 21:55 26.07496 -80.16290 15 ft 7 kts 270°
2026-05-03 21:56 26.07496 -80.16324 15 ft 0 kts 270°
2026-05-03 22:06 26.07496 -80.16337 25 ft 4 kts 270°
2026-05-03 22:06 26.07496 -80.16372 15 ft 1 kts 270°
2026-05-03 22:07 26.07496 -80.16388 15 ft 4 kts 270°
2026-05-03 22:07 26.07496 -80.16392 15 ft 0 kts 270°
2026-05-03 22:09 26.07496 -80.16396 15 ft 2 kts 270°
2026-05-03 22:09 26.07496 -80.16423 15 ft 5 kts 270°
2026-05-03 22:10 26.07497 -80.16482 15 ft 0 kts 270°
2026-05-03 22:17 26.07497 -80.16483 15 ft 1 kts 270°
2026-05-03 22:17 26.07497 -80.16506 16 ft 5 kts 270°
2026-05-03 22:17 26.07497 -80.16531 15 ft 0 kts 270°
2026-05-03 22:19 26.07497 -80.16539 15 ft 3 kts 270°
2026-05-03 22:19 26.07497 -80.16576 15 ft 7 kts 269°
2026-05-03 22:20 26.07497 -80.16592 15 ft 0 kts 269°
2026-05-03 22:22 26.07497 -80.16594 15 ft 1 kts 269°
2026-05-03 22:22 26.07501 -80.16616 15 ft 4 kts 289°
2026-05-03 22:22 26.07507 -80.16627 17 ft 3 kts 302°
2026-05-03 22:23 26.07515 -80.16635 16 ft 0 kts 322°
2026-05-03 22:23 26.07519 -80.16637 16 ft 2 kts 328°
2026-05-03 22:23 26.07542 -80.16643 16 ft 5 kts 356°
2026-05-03 22:24 26.07566 -80.16643 16 ft 0 kts 359°
2026-05-03 22:30 26.07577 -80.16643 17 ft 3 kts 360°
2026-05-03 22:30 26.07596 -80.16643 16 ft 0 kts
2026-05-03 22:32 26.07613 -80.16642 16 ft 6 kts
2026-05-03 22:32 26.07670 -80.16637 17 ft 9 kts 22°
2026-05-03 22:32 26.07695 -80.16574 18 ft 10 kts 88°
2026-05-03 22:32 26.07695 -80.16570 18 ft 0 kts 90°
2026-05-03 22:33 26.07695 -80.16561 18 ft 8 kts 90°
2026-05-03 22:33 26.07695 -80.16248 20 ft 79 kts 89°
2026-05-03 22:34 26.07689 -80.15380 16 ft 143 kts 90°
2026-05-03 22:34 26.07670 -80.14132 321 ft 167 kts 89°
2026-05-03 22:34 26.07643 -80.12856 1159 ft 161 kts 88°
2026-05-03 22:34 26.07647 -80.11617 1948 ft 164 kts 87°
2026-05-03 22:35 26.07662 -80.10276 2408 ft 184 kts 87°
2026-05-03 22:35 26.07856 -80.08781 2794 ft 207 kts 73°
2026-05-03 22:35 26.08420 -80.07215 3238 ft 232 kts 59°
2026-05-03 22:35 26.09558 -80.05917 3742 ft 254 kts 28°
2026-05-03 22:36 26.11326 -80.05217 3964 ft 273 kts
2026-05-03 22:36 26.13200 -80.04863 3997 ft 273 kts
2026-05-03 22:36 26.15055 -80.04692 4007 ft 270 kts 353°
2026-05-03 22:36 26.16887 -80.05093 4109 ft 270 kts 336°
2026-05-03 22:37 26.18643 -80.05862 4739 ft 272 kts 336°
2026-05-03 22:37 26.20426 -80.06569 5767 ft 273 kts 336°
2026-05-03 22:37 26.22066 -80.07589 6420 ft 270 kts 313°
2026-05-03 22:37 26.23121 -80.09285 6842 ft 269 kts 289°
2026-05-03 22:38 26.23793 -80.11228 7768 ft 267 kts 289°
2026-05-03 22:38 26.24465 -80.13153 8798 ft 268 kts 289°
2026-05-03 22:38 26.25291 -80.15032 9697 ft 274 kts 302°
2026-05-03 22:38 26.26657 -80.16558 10474 ft 289 kts 320°
2026-05-03 22:39 26.28473 -80.17685 10804 ft 315 kts 328°
2026-05-03 22:39 26.30509 -80.18814 11159 ft 336 kts 329°
2026-05-03 22:39 26.32563 -80.19943 11917 ft 342 kts 329°
2026-05-03 22:39 26.34774 -80.21165 12594 ft 346 kts 329°
2026-05-03 22:40 26.37006 -80.22229 12885 ft 352 kts 336°
2026-05-03 22:40 26.39392 -80.22916 13012 ft 357 kts 345°
2026-05-03 22:40 26.41890 -80.23221 13303 ft 364 kts 351°
2026-05-03 22:40 26.44421 -80.23462 14115 ft 365 kts 349°
2026-05-03 22:41 26.46965 -80.23721 14804 ft 369 kts 349°
2026-05-03 22:41 26.49507 -80.23985 15510 ft 374 kts 349°
2026-05-03 22:41 26.52108 -80.24256 16220 ft 378 kts 349°
2026-05-03 22:41 26.54745 -80.24528 16893 ft 382 kts 348°
2026-05-03 22:42 26.57386 -80.24867 17546 ft 384 kts 345°
2026-05-03 22:42 26.60053 -80.25316 18176 ft 389 kts 345°
2026-05-03 22:42 26.62742 -80.25765 18739 ft 393 kts 345°
2026-05-03 22:42 26.65462 -80.26218 19269 ft 397 kts 345°
2026-05-03 22:43 26.68179 -80.26670 19789 ft 401 kts 345°
2026-05-03 22:43 26.70914 -80.27279 20316 ft 399 kts 338°
2026-05-03 22:43 26.73495 -80.28248 20843 ft 398 kts 332°
2026-05-03 22:43 26.76099 -80.29352 21399 ft 402 kts 332°
2026-05-03 22:44 26.78718 -80.30448 21930 ft 406 kts 332°
2026-05-03 22:44 26.81385 -80.31561 22463 ft 410 kts 332°
2026-05-03 22:44 26.84068 -80.32681 22986 ft 414 kts 331°
2026-05-03 22:44 26.86778 -80.33813 23542 ft 418 kts 331°
2026-05-03 22:45 26.89511 -80.34955 23971 ft 421 kts 331°
2026-05-03 22:45 26.92261 -80.36107 24442 ft 423 kts 331°
2026-05-03 22:45 26.95030 -80.37265 24884 ft 426 kts 331°
2026-05-03 22:45 26.97830 -80.38405 25319 ft 430 kts 332°
2026-05-03 22:46 27.00616 -80.39521 25747 ft 432 kts 332°
2026-05-03 22:46 27.03456 -80.40657 26184 ft 435 kts 332°
2026-05-03 22:46 27.06318 -80.41806 26602 ft 438 kts 331°
2026-05-03 22:46 27.09191 -80.42963 27005 ft 441 kts 331°
2026-05-03 22:47 27.12063 -80.44169 27400 ft 441 kts 330°
2026-05-03 22:47 27.14926 -80.45440 27821 ft 443 kts 329°
2026-05-03 22:47 27.17800 -80.46730 28229 ft 446 kts 329°
2026-05-03 22:47 27.20690 -80.48025 28606 ft 449 kts 329°
2026-05-03 22:48 27.23598 -80.49320 28969 ft 452 kts 329°
2026-05-03 22:48 27.26496 -80.50606 29324 ft 454 kts 329°
2026-05-03 22:48 27.29475 -80.51924 29685 ft 457 kts 329°
2026-05-03 22:48 27.32358 -80.53201 30020 ft 460 kts 329°
2026-05-03 22:49 27.35327 -80.54516 30359 ft 461 kts 329°
2026-05-03 22:49 27.38313 -80.55819 30697 ft 464 kts 330°
2026-05-03 22:49 27.41365 -80.57047 31027 ft 468 kts 331°
2026-05-03 22:49 27.44449 -80.58244 31388 ft 469 kts 331°
2026-05-03 22:50 27.47528 -80.59438 31803 ft 467 kts 330°
2026-05-03 22:50 27.50590 -80.60635 32247 ft 465 kts 330°
2026-05-03 22:50 27.53642 -80.61838 32688 ft 463 kts 329°
2026-05-03 22:50 27.56675 -80.63042 33117 ft 462 kts 329°
2026-05-03 22:51 27.59704 -80.64247 33533 ft 460 kts 329°
2026-05-03 22:51 27.62718 -80.65448 33936 ft 459 kts 328°
2026-05-03 22:51 27.65679 -80.66629 34281 ft 457 kts 328°
2026-05-03 22:51 27.68677 -80.67826 34575 ft 457 kts 328°
2026-05-03 22:52 27.71668 -80.69022 34865 ft 456 kts 328°
2026-05-03 22:52 27.74660 -80.70218 35137 ft 456 kts 328°
2026-05-03 22:52 27.77649 -80.71413 35477 ft 455 kts 328°
2026-05-03 22:52 27.80631 -80.72605 35754 ft 454 kts 328°
2026-05-03 22:53 27.83605 -80.73796 36007 ft 454 kts 328°
2026-05-03 22:53 27.86575 -80.74986 36262 ft 453 kts 327°
2026-05-03 22:53 27.89547 -80.76178 36505 ft 453 kts 327°
2026-05-03 22:53 27.92514 -80.77368 36740 ft 453 kts 327°
2026-05-03 22:54 27.95483 -80.78559 36972 ft 452 kts 327°
2026-05-03 22:54 27.98405 -80.79733 37193 ft 452 kts 327°
2026-05-03 22:54 28.01370 -80.80926 37402 ft 452 kts 327°
2026-05-03 22:54 28.04326 -80.82116 37627 ft 451 kts 327°
2026-05-03 22:55 28.07286 -80.83307 37900 ft 451 kts 327°
2026-05-03 22:55 28.10240 -80.84495 38109 ft 450 kts 327°
2026-05-03 22:55 28.13190 -80.85683 38309 ft 450 kts 327°
2026-05-03 22:55 28.16141 -80.86873 38495 ft 450 kts 327°
2026-05-03 22:56 28.19090 -80.88062 38670 ft 450 kts 327°
2026-05-03 22:56 28.22039 -80.89251 38833 ft 450 kts 327°
2026-05-03 22:56 28.24981 -80.90437 39005 ft 448 kts 327°
2026-05-03 22:57 28.30839 -80.92802 39085 ft 446 kts 327°
2026-05-03 22:57 28.36677 -80.95164 39130 ft 446 kts 326°
2026-05-03 22:58 28.42538 -80.97540 39086 ft 447 kts 326°
2026-05-03 22:58 28.48362 -80.99899 39090 ft 447 kts 326°
2026-05-03 22:59 28.54215 -81.02274 39086 ft 447 kts 326°
2026-05-03 22:59 28.60074 -81.04656 39087 ft 447 kts 326°
2026-05-03 23:00 28.65929 -81.07039 39084 ft 447 kts 326°
2026-05-03 23:00 28.71801 -81.09432 39079 ft 449 kts 326°
2026-05-03 23:01 28.77682 -81.11829 39080 ft 449 kts 326°
2026-05-03 23:01 28.83523 -81.14213 39095 ft 449 kts 326°
2026-05-03 23:02 28.89402 -81.16615 39105 ft 449 kts 326°
2026-05-03 23:02 28.95285 -81.19023 39108 ft 449 kts 326°
2026-05-03 23:03 29.01186 -81.21442 39108 ft 451 kts 326°
2026-05-03 23:03 29.07092 -81.23864 39110 ft 451 kts 326°
2026-05-03 23:04 29.12955 -81.26272 39113 ft 451 kts 326°
2026-05-03 23:04 29.18865 -81.28702 39125 ft 451 kts 326°
2026-05-03 23:05 29.24815 -81.31055 39118 ft 459 kts 330°
2026-05-03 23:05 29.27958 -81.31915 39119 ft 471 kts 335°
2026-05-03 23:05 29.31242 -81.32468 39121 ft 481 kts 340°
2026-05-03 23:06 29.37998 -81.32904 39121 ft 487 kts 343°
2026-05-03 23:06 29.44771 -81.33311 39122 ft 487 kts 343°
2026-05-03 23:07 29.51495 -81.33713 39123 ft 487 kts 343°
2026-05-03 23:07 29.58268 -81.34115 39136 ft 488 kts 343°
2026-05-03 23:08 29.65055 -81.34516 39124 ft 488 kts 343°
2026-05-03 23:08 29.71844 -81.34917 39130 ft 488 kts 343°
2026-05-03 23:09 29.78555 -81.35314 39135 ft 488 kts 343°
2026-05-03 23:09 29.85275 -81.35713 39145 ft 489 kts 343°
2026-05-03 23:10 29.92062 -81.36117 39143 ft 489 kts 343°
2026-05-03 23:10 29.98853 -81.36521 39141 ft 488 kts 343°
2026-05-03 23:11 30.05638 -81.36925 39139 ft 488 kts 343°
2026-05-03 23:11 30.12417 -81.37329 39189 ft 488 kts 343°
2026-05-03 23:12 30.19154 -81.37731 39133 ft 486 kts 343°
2026-05-03 23:12 30.25910 -81.38135 39128 ft 486 kts 343°
2026-05-03 23:13 30.32623 -81.38540 39127 ft 487 kts 343°
2026-05-03 23:13 30.39432 -81.38948 39128 ft 487 kts 343°
2026-05-03 23:14 30.46196 -81.39355 39130 ft 487 kts 343°
2026-05-03 23:14 30.52928 -81.39721 39138 ft 487 kts 343°
2026-05-03 23:15 30.59702 -81.40070 39139 ft 487 kts 343°
2026-05-03 23:15 30.66475 -81.40426 39139 ft 487 kts 343°
2026-05-03 23:16 30.73261 -81.40788 39137 ft 488 kts 344°
2026-05-03 23:16 30.80039 -81.41146 39133 ft 488 kts 344°
2026-05-03 23:17 30.86819 -81.41508 39130 ft 488 kts 344°
2026-05-03 23:17 30.93593 -81.41868 39131 ft 487 kts 344°
2026-05-03 23:18 31.00309 -81.42225 39122 ft 484 kts 344°
2026-05-03 23:18 31.07041 -81.42586 39122 ft 485 kts 344°
2026-05-03 23:19 31.13785 -81.42948 39118 ft 485 kts 344°
2026-05-03 23:19 31.20542 -81.43229 39129 ft 493 kts 349°
2026-05-03 23:19 31.24008 -81.42862 39191 ft 507 kts 358°
2026-05-03 23:20 31.27481 -81.41958 39136 ft 515 kts
2026-05-03 23:20 31.34193 -81.38705 39126 ft 528 kts 16°
2026-05-03 23:21 31.40871 -81.35088 39131 ft 529 kts 15°
2026-05-03 23:21 31.47498 -81.31496 39133 ft 528 kts 15°
2026-05-03 23:22 31.57467 -81.26070 39120 ft 527 kts 16°
2026-05-03 23:22 31.64155 -81.22430 39124 ft 531 kts 16°
2026-05-03 23:23 31.70838 -81.18777 39109 ft 529 kts 16°
2026-05-03 23:23 31.77524 -81.15120 39131 ft 530 kts 16°
2026-05-03 23:24 31.84112 -81.11507 39089 ft 525 kts 16°
2026-05-03 23:24 31.90738 -81.07874 39082 ft 526 kts 16°
2026-05-03 23:25 31.97373 -81.04228 39081 ft 526 kts 16°
2026-05-03 23:25 32.03997 -81.00564 39125 ft 525 kts 17°
2026-05-03 23:26 32.10531 -80.96895 39085 ft 518 kts 17°
2026-05-03 23:26 32.17062 -80.93237 39114 ft 521 kts 17°
2026-05-03 23:27 32.23557 -80.89590 39130 ft 522 kts 17°
2026-05-03 23:27 32.30156 -80.85886 39163 ft 526 kts 17°
2026-05-03 23:28 32.36711 -80.82190 39117 ft 520 kts 17°
2026-05-03 23:28 32.43256 -80.78503 39118 ft 522 kts 17°
2026-05-03 23:29 32.49808 -80.74803 39115 ft 521 kts 17°
2026-05-03 23:29 32.56311 -80.71124 39131 ft 521 kts 17°
2026-05-03 23:30 32.62812 -80.67439 39118 ft 518 kts 17°
2026-05-03 23:30 32.69224 -80.63412 39117 ft 528 kts 26°
2026-05-03 23:31 32.75019 -80.57916 39111 ft 539 kts 40°
2026-05-03 23:31 32.80242 -80.51519 39152 ft 542 kts 41°
2026-05-03 23:32 32.85482 -80.45116 39112 ft 539 kts 41°
2026-05-03 23:32 32.90675 -80.38745 39111 ft 540 kts 41°
2026-05-03 23:33 32.95883 -80.32334 39115 ft 540 kts 41°
2026-05-03 23:33 33.01105 -80.25891 39114 ft 540 kts 41°
2026-05-03 23:34 33.06316 -80.19451 39087 ft 540 kts 41°
2026-05-03 23:34 33.11528 -80.13000 39106 ft 542 kts 41°
2026-05-03 23:35 33.16749 -80.06523 39110 ft 546 kts 41°
2026-05-03 23:35 33.22000 -79.99995 39110 ft 545 kts 41°
2026-05-03 23:36 33.27243 -79.93467 39116 ft 545 kts 41°
2026-05-03 23:36 33.32449 -79.86970 39111 ft 539 kts 41°
2026-05-03 23:37 33.37649 -79.80475 39102 ft 541 kts 41°
2026-05-03 23:37 33.42837 -79.73983 39101 ft 546 kts 41°
2026-05-03 23:38 33.48081 -79.67405 39103 ft 545 kts 41°
2026-05-03 23:38 33.53316 -79.60825 39117 ft 543 kts 41°
2026-05-03 23:39 33.58482 -79.54319 39111 ft 538 kts 41°
2026-05-03 23:39 33.63658 -79.47795 39108 ft 540 kts 41°
2026-05-03 23:40 33.68796 -79.41301 39091 ft 541 kts 41°
2026-05-03 23:40 33.74010 -79.34703 39110 ft 548 kts 41°
2026-05-03 23:41 33.79222 -79.28088 39108 ft 538 kts 41°
2026-05-03 23:41 33.84363 -79.21555 39109 ft 540 kts 41°
2026-05-03 23:42 33.89497 -79.15022 39111 ft 540 kts 41°
2026-05-03 23:42 33.94656 -79.08440 39109 ft 540 kts 41°
2026-05-03 23:43 33.99818 -79.01843 39127 ft 543 kts 41°
2026-05-03 23:43 34.04983 -78.95229 39105 ft 541 kts 41°
2026-05-03 23:44 34.10109 -78.88655 39103 ft 542 kts 41°
2026-05-03 23:44 34.15270 -78.82022 39100 ft 542 kts 41°
2026-05-03 23:45 34.20402 -78.75413 39097 ft 542 kts 41°
2026-05-03 23:45 34.25540 -78.68783 39112 ft 537 kts 41°
2026-05-03 23:46 34.30673 -78.62151 39110 ft 543 kts 41°
2026-05-03 23:46 34.36200 -78.56168 39106 ft 533 kts 30°
2026-05-03 23:47 34.42054 -78.50658 39100 ft 533 kts 31°
2026-05-03 23:47 34.47890 -78.45133 39103 ft 530 kts 31°
2026-05-03 23:48 34.53695 -78.39628 39094 ft 530 kts 31°
2026-05-03 23:48 34.59472 -78.34144 39086 ft 531 kts 31°
2026-05-03 23:49 34.65278 -78.28620 39079 ft 530 kts 31°
2026-05-03 23:49 34.71077 -78.23093 39093 ft 528 kts 31°
2026-05-03 23:50 34.75869 -78.18517 39090 ft 527 kts 31°
2026-05-03 23:50 34.82581 -78.12100 39090 ft 528 kts 31°
2026-05-03 23:51 34.88329 -78.06597 39100 ft 527 kts 31°
2026-05-03 23:51 34.94063 -78.01126 39105 ft 525 kts 31°
2026-05-03 23:52 34.99799 -77.95643 39089 ft 525 kts 31°
2026-05-03 23:52 35.05535 -77.90149 39101 ft 529 kts 31°
2026-05-03 23:53 35.11306 -77.84607 39099 ft 527 kts 31°
2026-05-03 23:53 35.17066 -77.79066 39101 ft 525 kts 31°
2026-05-03 23:54 35.21817 -77.74485 39070 ft 522 kts 31°
2026-05-03 23:54 35.27544 -77.68963 39092 ft 527 kts 31°
2026-05-03 23:55 35.33291 -77.63405 39097 ft 525 kts 31°
2026-05-03 23:55 35.39024 -77.57849 39090 ft 527 kts 31°
2026-05-03 23:56 35.44758 -77.52286 39098 ft 530 kts 31°
2026-05-03 23:56 35.50510 -77.46691 39090 ft 528 kts 31°
2026-05-03 23:57 35.56248 -77.41100 39082 ft 527 kts 31°
2026-05-03 23:57 35.61948 -77.35537 39103 ft 526 kts 31°
2026-05-03 23:58 35.67667 -77.29944 39091 ft 525 kts 31°
2026-05-03 23:58 35.73377 -77.24349 39083 ft 524 kts 31°
2026-05-03 23:59 35.79090 -77.18742 39086 ft 528 kts 31°
2026-05-03 23:59 35.84833 -77.13095 39094 ft 526 kts 31°
2026-05-04 00:00 35.90503 -77.07511 39100 ft 525 kts 30°
2026-05-04 00:00 35.96577 -77.02709 39097 ft 516 kts 21°
2026-05-04 00:01 36.02759 -76.98208 39092 ft 515 kts 22°
2026-05-04 00:01 36.08906 -76.93712 39088 ft 511 kts 22°
2026-05-04 00:02 36.14999 -76.89256 39088 ft 513 kts 22°
2026-05-04 00:02 36.21143 -76.84755 39088 ft 515 kts 21°
2026-05-04 00:03 36.27319 -76.80224 39108 ft 515 kts 22°
2026-05-04 00:03 36.33453 -76.75709 39083 ft 512 kts 22°
2026-05-04 00:04 36.39599 -76.71185 39076 ft 514 kts 22°
2026-05-04 00:04 36.45696 -76.66685 39079 ft 513 kts 22°
2026-05-04 00:05 36.51815 -76.62157 39083 ft 508 kts 22°
2026-05-04 00:05 36.57876 -76.57666 39089 ft 508 kts 22°
2026-05-04 00:06 36.63960 -76.53154 39092 ft 509 kts 22°
2026-05-04 00:06 36.69994 -76.48667 39089 ft 511 kts 22°
2026-05-04 00:07 36.76089 -76.44126 39090 ft 508 kts 22°
2026-05-04 00:07 36.82147 -76.39605 39091 ft 509 kts 22°
2026-05-04 00:08 36.88228 -76.35059 39080 ft 509 kts 22°
2026-05-04 00:08 36.94289 -76.30518 39082 ft 507 kts 22°
2026-05-04 00:09 37.00280 -76.26019 39082 ft 506 kts 22°
2026-05-04 00:09 37.06325 -76.21477 39074 ft 507 kts 22°
2026-05-04 00:10 37.12364 -76.16927 39076 ft 507 kts 22°
2026-05-04 00:10 37.18394 -76.12374 39078 ft 505 kts 22°
2026-05-04 00:11 37.24380 -76.07848 39082 ft 506 kts 22°
2026-05-04 00:11 37.30402 -76.03286 39091 ft 506 kts 22°
2026-05-04 00:12 37.36436 -75.98707 39123 ft 506 kts 22°
2026-05-04 00:12 37.42427 -75.94146 39086 ft 502 kts 22°
2026-05-04 00:13 37.48374 -75.89619 39074 ft 504 kts 22°
2026-05-04 00:13 37.54369 -75.85046 39073 ft 503 kts 22°
2026-05-04 00:14 37.60386 -75.80537 39073 ft 503 kts 21°
2026-05-04 00:14 37.66384 -75.76055 39066 ft 503 kts 21°
2026-05-04 00:15 37.72359 -75.71573 39069 ft 503 kts 21°
2026-05-04 00:15 37.78369 -75.67051 39097 ft 503 kts 21°
2026-05-04 00:16 37.84361 -75.62500 39070 ft 503 kts 24°
2026-05-04 00:16 37.90161 -75.57459 39073 ft 506 kts 26°
2026-05-04 00:17 37.95971 -75.52411 39073 ft 506 kts 26°
2026-05-04 00:17 38.01731 -75.47392 39062 ft 504 kts 26°
2026-05-04 00:18 38.07489 -75.42398 39028 ft 498 kts 24°
2026-05-04 00:18 38.13354 -75.37660 39052 ft 502 kts 23°
2026-05-04 00:19 38.19258 -75.32893 39062 ft 502 kts 24°
2026-05-04 00:19 38.25315 -75.28982 39061 ft 484 kts 10°
2026-05-04 00:20 38.31693 -75.26760 39061 ft 467 kts 358°
2026-05-04 00:20 38.38099 -75.25426 39061 ft 467 kts 359°
2026-05-04 00:21 38.44510 -75.24062 39062 ft 468 kts 359°
2026-05-04 00:21 38.50936 -75.22704 39051 ft 468 kts 359°
2026-05-04 00:22 38.57313 -75.21366 39040 ft 468 kts 359°
2026-05-04 00:22 38.63729 -75.20017 39060 ft 468 kts 360°
2026-05-04 00:23 38.70089 -75.17593 39035 ft 487 kts 15°
2026-05-04 00:23 38.76001 -75.13105 38794 ft 502 kts 30°
2026-05-04 00:24 38.78761 -75.10382 38262 ft 501 kts 30°
2026-05-04 00:24 38.81487 -75.07706 37629 ft 499 kts 29°
2026-05-04 00:24 38.84241 -75.05006 36975 ft 499 kts 29°
2026-05-04 00:24 38.87002 -75.02298 36325 ft 498 kts 29°
2026-05-04 00:25 38.89743 -74.99603 35695 ft 496 kts 29°
2026-05-04 00:25 38.92483 -74.96905 35069 ft 495 kts 28°
2026-05-04 00:25 38.95212 -74.94215 34448 ft 494 kts 28°
2026-05-04 00:25 38.97937 -74.91526 33786 ft 493 kts 28°
2026-05-04 00:26 39.00654 -74.88842 33067 ft 492 kts 28°
2026-05-04 00:26 39.03328 -74.86200 32327 ft 491 kts 28°
2026-05-04 00:26 39.06024 -74.83533 31679 ft 488 kts 28°
2026-05-04 00:26 39.08720 -74.80866 30842 ft 489 kts 28°
2026-05-04 00:27 39.11403 -74.78168 30054 ft 490 kts 30°
2026-05-04 00:27 39.14023 -74.75358 29176 ft 489 kts 32°
2026-05-04 00:27 39.16608 -74.72523 28337 ft 487 kts 32°
2026-05-04 00:27 39.19178 -74.69700 27533 ft 484 kts 32°
2026-05-04 00:28 39.21731 -74.66912 26801 ft 479 kts 32°
2026-05-04 00:28 39.24261 -74.64159 26181 ft 473 kts 33°
2026-05-04 00:28 39.26765 -74.61443 25506 ft 467 kts 33°
2026-05-04 00:28 39.29205 -74.58799 24869 ft 462 kts 33°
2026-05-04 00:29 39.31649 -74.56147 24243 ft 457 kts 33°
2026-05-04 00:29 39.34071 -74.53519 23631 ft 452 kts 33°
2026-05-04 00:29 39.36462 -74.50921 22901 ft 447 kts 33°
2026-05-04 00:29 39.38826 -74.48349 22199 ft 442 kts 33°
2026-05-04 00:30 39.41169 -74.45797 21500 ft 438 kts 33°
2026-05-04 00:30 39.43486 -74.43272 20838 ft 433 kts 34°
2026-05-04 00:30 39.45777 -74.40773 20175 ft 429 kts 34°
2026-05-04 00:30 39.48043 -74.38298 19517 ft 424 kts 34°
2026-05-04 00:31 39.50256 -74.35878 18893 ft 420 kts 34°
2026-05-04 00:31 39.52475 -74.33449 18270 ft 416 kts 34°
2026-05-04 00:31 39.54675 -74.31040 17563 ft 411 kts 34°
2026-05-04 00:31 39.56838 -74.28667 17060 ft 403 kts 34°
2026-05-04 00:32 39.58940 -74.26355 16754 ft 390 kts 34°
2026-05-04 00:32 39.60957 -74.24135 16429 ft 378 kts 34°
2026-05-04 00:32 39.62937 -74.21957 16111 ft 368 kts 34°
2026-05-04 00:32 39.64867 -74.19834 15708 ft 361 kts 34°
2026-05-04 00:33 39.66745 -74.17771 15268 ft 356 kts 34°
2026-05-04 00:33 39.70451 -74.13691 14473 ft 345 kts 34°
2026-05-04 00:33 39.72268 -74.11687 14083 ft 340 kts 34°
2026-05-04 00:34 39.74056 -74.09713 13742 ft 334 kts 35°
2026-05-04 00:34 39.75797 -74.07786 13465 ft 324 kts 34°
2026-05-04 00:34 39.77492 -74.05909 13205 ft 316 kts 34°
2026-05-04 00:34 39.79144 -74.04081 12937 ft 308 kts 34°
2026-05-04 00:35 39.80732 -74.02322 12698 ft 300 kts 34°
2026-05-04 00:35 39.82299 -74.00586 12435 ft 293 kts 34°
2026-05-04 00:35 39.83873 -73.98890 12174 ft 295 kts 30°
2026-05-04 00:35 39.85603 -73.97516 11916 ft 288 kts 22°
2026-05-04 00:36 39.87358 -73.96298 11663 ft 284 kts 22°
2026-05-04 00:36 39.89099 -73.95074 11403 ft 283 kts 22°
2026-05-04 00:36 39.90822 -73.93855 11152 ft 281 kts 22°
2026-05-04 00:36 39.92534 -73.92642 10904 ft 279 kts 22°
2026-05-04 00:37 39.94238 -73.91434 10656 ft 278 kts 22°
2026-05-04 00:37 39.95904 -73.90252 10405 ft 275 kts 22°
2026-05-04 00:37 39.97582 -73.89062 10155 ft 274 kts 22°
2026-05-04 00:37 39.99249 -73.87879 9908 ft 272 kts 22°
2026-05-04 00:38 40.00898 -73.86705 9665 ft 268 kts 22°
2026-05-04 00:38 40.02559 -73.85596 9398 ft 268 kts 19°
2026-05-04 00:38 40.04251 -73.84570 9121 ft 268 kts 19°
2026-05-04 00:38 40.05939 -73.83540 8854 ft 268 kts 19°
2026-05-04 00:39 40.07617 -73.82513 8593 ft 267 kts 19°
2026-05-04 00:39 40.09296 -73.81484 8331 ft 267 kts 19°
2026-05-04 00:39 40.10959 -73.80465 8074 ft 267 kts 19°
2026-05-04 00:39 40.12633 -73.79438 7808 ft 267 kts 19°
2026-05-04 00:40 40.14316 -73.78405 7555 ft 268 kts 19°
2026-05-04 00:40 40.16000 -73.77370 7296 ft 267 kts 19°
2026-05-04 00:40 40.17680 -73.76338 7048 ft 267 kts 19°
2026-05-04 00:40 40.19359 -73.75306 6794 ft 266 kts 19°
2026-05-04 00:41 40.21034 -73.74275 6532 ft 266 kts 19°
2026-05-04 00:41 40.22709 -73.73246 6287 ft 266 kts 19°
2026-05-04 00:41 40.24380 -73.72217 6028 ft 265 kts 19°
2026-05-04 00:41 40.26027 -73.71204 5764 ft 265 kts 19°
2026-05-04 00:42 40.27687 -73.70180 5498 ft 264 kts 19°
2026-05-04 00:42 40.29349 -73.69156 5245 ft 264 kts 19°
2026-05-04 00:42 40.31010 -73.68131 4984 ft 264 kts 19°
2026-05-04 00:42 40.32664 -73.67110 4721 ft 263 kts 20°
2026-05-04 00:43 40.34321 -73.66087 4462 ft 263 kts 19°
2026-05-04 00:43 40.35967 -73.65068 4203 ft 262 kts 19°
2026-05-04 00:43 40.37623 -73.64046 3941 ft 263 kts 19°
2026-05-04 00:43 40.39266 -73.63028 3695 ft 261 kts 19°
2026-05-04 00:44 40.40920 -73.62007 3438 ft 262 kts 20°
2026-05-04 00:44 40.42542 -73.61002 3190 ft 262 kts 20°
2026-05-04 00:44 40.44233 -73.60185 2916 ft 253 kts
2026-05-04 00:44 40.45965 -73.59949 2667 ft 250 kts
2026-05-04 00:45 40.47685 -73.59732 2406 ft 246 kts
2026-05-04 00:45 40.49371 -73.59518 2143 ft 241 kts
2026-05-04 00:45 40.51024 -73.59305 1935 ft 235 kts
2026-05-04 00:45 40.52635 -73.59097 1907 ft 232 kts
2026-05-04 00:46 40.54191 -73.58894 1904 ft 218 kts
2026-05-04 00:46 40.55679 -73.58987 1903 ft 213 kts 334°
2026-05-04 00:46 40.56890 -73.60036 1905 ft 209 kts 311°
2026-05-04 00:46 40.57795 -73.61501 1902 ft 207 kts 302°
2026-05-04 00:47 40.58556 -73.63079 1894 ft 194 kts 298°
2026-05-04 00:47 40.59191 -73.64496 1890 ft 167 kts 298°
2026-05-04 00:47 40.59787 -73.65810 1856 ft 167 kts 298°
2026-05-04 00:47 40.60368 -73.67091 1654 ft 163 kts 298°
2026-05-04 00:48 40.60952 -73.68379 1403 ft 162 kts 299°
2026-05-04 00:48 40.61505 -73.69594 1166 ft 147 kts 298°
2026-05-04 00:48 40.61998 -73.70681 991 ft 132 kts 298°
2026-05-04 00:48 40.62442 -73.71663 815 ft 119 kts 298°
2026-05-04 00:49 40.62875 -73.72607 660 ft 121 kts 300°
2026-05-04 00:49 40.63315 -73.73499 484 ft 115 kts 299°
2026-05-04 00:49 40.63718 -73.74422 332 ft 116 kts 296°
2026-05-04 00:49 40.64125 -73.75360 206 ft 120 kts 299°
2026-05-04 00:50 40.64557 -73.76308 70 ft 121 kts 298°
2026-05-04 00:50 40.64943 -73.77194 19 ft 93 kts 301°
2026-05-04 00:50 40.65175 -73.77698 17 ft 41 kts 302°
2026-05-04 00:50 40.65278 -73.77926 18 ft 11 kts 298°
2026-05-04 00:51 40.65304 -73.78028 20 ft 12 kts 277°
2026-05-04 00:51 40.65314 -73.78135 25 ft 11 kts 275°
2026-05-04 00:51 40.65313 -73.78236 25 ft 12 kts 268°
2026-05-04 00:51 40.65339 -73.78344 27 ft 13 kts 303°
2026-05-04 00:52 40.65364 -73.78429 27 ft 9 kts 263°
2026-05-04 00:52 40.65339 -73.78477 24 ft 3 kts 204°
2026-05-04 00:52 40.65305 -73.78471 26 ft 7 kts 158°
2026-05-04 00:52 40.65270 -73.78411 24 ft 11 kts 107°
2026-05-04 00:53 40.65237 -73.78316 26 ft 12 kts 120°
2026-05-04 00:53 40.65185 -73.78203 26 ft 17 kts 121°
2026-05-04 00:53 40.65114 -73.78044 24 ft 22 kts 120°
2026-05-04 00:53 40.65040 -73.77882 20 ft 20 kts 120°
2026-05-04 00:54 40.64964 -73.77717 20 ft 16 kts 121°
2026-05-04 00:54 40.64903 -73.77577 20 ft 20 kts 120°
2026-05-04 00:54 40.64826 -73.77411 22 ft 19 kts 120°
2026-05-04 00:54 40.64755 -73.77253 24 ft 17 kts 121°
2026-05-04 00:55 40.64700 -73.77139 25 ft 11 kts 130°
2026-05-04 00:55 40.64623 -73.77091 23 ft 15 kts 173°
2026-05-04 00:55 40.64509 -73.77091 21 ft 19 kts 181°
2026-05-04 00:55 40.64419 -73.77115 22 ft 13 kts 208°
2026-05-04 00:56 40.64333 -73.77183 23 ft 16 kts 211°
2026-05-04 00:56 40.64232 -73.77262 25 ft 16 kts 210°
2026-05-04 00:56 40.64125 -73.77343 25 ft 20 kts 211°
2026-05-04 00:56 40.64071 -73.77413 22 ft 8 kts 275°
2026-05-04 00:57 40.64104 -73.77480 33 ft 9 kts 313°
2026-05-04 00:57 40.64166 -73.77542 25 ft 13 kts 328°
2026-05-04 00:57 40.64250 -73.77604 22 ft 13 kts 332°
2026-05-04 00:57 40.64310 -73.77651 22 ft 6 kts 310°
2026-05-04 00:58 40.64305 -73.77703 23 ft 6 kts 242°
2026-05-04 00:58 40.64298 -73.77721 24 ft 0 kts 241°
2026-05-04 00:59 40.64298 -73.77720 24 ft 0 kts 241°
2026-05-04 01:00 40.64298 -73.77721 23 ft 0 kts 241°
2026-05-04 01:00 40.64298 -73.77720 23 ft 0 kts 241°
2026-05-04 01:00 40.64298 -73.77721 23 ft 0 kts 241°